Погода в Красново

Россия / Тюменская область     56°35′54″N   65°10′26″E
темп.,
°C
ветер,
м/с
пор.,
м/с
влажн.,
%
обл.,
%
осадки,
мм/ч
давл.,
гПа
погр.,
м
21 октября, чт
чт2123:00+4ссв4694100 1.9 1002324
02:00+3с5796100 1.7 1001423
05:00+2с51098100 2.5 1001370
08:00+1ссз71497100 2.6 1001603
11:00+1ссз71496100 4.4 1003821
14:00+1ссз71296100 0.7 1004799
17:00+2сз6117897 1.1 1006879
20:000зсз410835 0.0 1007295
22 октября, пт
пт2223:00−3зюз36885 0.0 100796
02:00−3юз3987100 0.0 1006187
05:00−1ююз41280100 0.0 1005413
08:00−1ююз5129287 0.0 1004620
11:00+2ююз71085100 0.1 1003739
14:00+2юз51088100 0.0 1004679
17:00+2юз51297100 0.0 1004444
20:00+4ююз51294100 0.0 1004381
23 октября, сб
сб2323:00+5ююз71595100 1.3 1003574
02:00+6юз71592100 0.2 1002584
05:00+7юз81685100 0.2 1002762
08:00+8зюз8168216 0.0 1003770
11:00+9зюз81479100 0.0 10051111
14:00+11зюз814680 0.0 10061318
17:00+10зюз815673 0.0 1008836
20:00+8зюз816705 0.0 1010759
24 октября, вс
вс2423:00+7зюз715755 0.0 1011623
02:00+6зюз61482100 0.0 1012475
05:00+6зюз41185100 0.0 1013332
08:00+5ююз3993100 0.0 1013229
11:00+8ююз51176100 0.0 1012566
14:00+8ю61389100 0.6 1009904
17:00+10зюз61379100 0.6 1009840
20:00+10зюз61279100 0.0 1010666
25 октября, пн
пн2523:00+8зюз3784100 0.0 1011312
02:00+7зюз4986100 0.3 1011482
05:00+6зюз3688100 0.3 1012229
08:00+6зюз3687100 0.0 1012270
11:00+7з4667100 0.0 1013660
14:00+7з465882 0.0 10131085
17:00+5з23695 0.0 101451
20:00+3з227791 0.0 101419